This demonstration page uses our WeatherBlox Daily Observations layout. Learn more.

36.17497, -115.13722

Hourly Observations for August 10, 2018

Temp ( °F °C ) Dew Point ( °F °C ) Humidity (%) Winds ( mph kmh ) Pressure ( in mb ) Visibility ( mi km ) Precip ( " mm )
12:53 am 00:53 Clear 93 33.9 59 15 32 32 SSW 13 20 29.86 1011 10 16.0934 0 0
1:53 am 01:53 Clear 92 33.3 59 15 33 33 S 16 26 29.86 1011 10 16.0934 0 0
2:53 am 02:53 Clear 91 32.8 59 15 34 34 SW 6 9 29.86 1011 10 16.0934 0 0
3:53 am 03:53 Clear 89 31.7 59 15 36 36 Calm 29.86 1011 10 16.0934 0 0
4:53 am 04:53 Clear 87 30.6 55 12.8 34 34 NE 9 15 29.88 1012 10 16.0934 0 0
5:53 am 05:53 Clear 86 30 56 13.3 36 36 NE 10 17 29.9 1012 10 16.0934 0 0
6:53 am 06:53 Sunny 86 30 59 15 40 40 NE 8 13 29.93 1014 10 16.0934 0 0
7:53 am 07:53 Sunny 87 30.6 60 15.6 40 40 E 8 13 29.95 1014 10 16.0934 0 0
8:53 am 08:53 Sunny 90 32.2 60 15.6 37 37 E 8 13 29.95 1014 10 16.0934 0 0
9:53 am 09:53 Sunny 92 33.3 60 15.6 34 34 SSE 7 11 29.94 1014 10 16.0934 0 0
10:53 am 10:53 Sunny 96 35.6 58 14.4 28 28 SE 10 17 29.93 1014 10 16.0934 0 0
11:53 am 11:53 Sunny 97 36.1 58 14.4 27 27 S 7 11 29.92 1013 10 16.0934 0 0
12:53 pm 12:53 Sunny 100 37.8 58 14.4 25 25 ENE 9 15 29.89 1012 10 16.0934 0 0
1:53 pm 13:53 Sunny 100 37.8 57 13.9 24 24 ESE 8 13 29.87 1012 10 16.0934 0 0
2:53 pm 14:53 Sunny 103 39.4 58 14.4 23 23 SE 13 20 29.84 1011 10 16.0934 0 0
3:53 pm 15:53 Sunny 104 40 57 13.9 21 21 ESE 9 15 29.81 1010 10 16.0934 0 0
4:53 pm 16:53 Sunny 105 40.6 55 12.8 19 19 SSE 10 17 29.8 1009 10 16.0934 0 0
5:53 pm 17:53 Sunny 105 40.6 52 11.1 17 17 S 10 17 29.78 1009 10 16.0934 0 0
6:53 pm 18:53 Sunny 104 40 51 10.6 17 17 S 10 17 29.78 1008 10 16.0934 0 0
7:53 pm 19:53 Clear 102 38.9 50 10 17 17 WSW 9 15 29.78 1009 10 16.0934 0 0
8:53 pm 20:53 Clear 101 38.3 49 9.4 17 17 WSW 10 17 29.8 1009 10 16.0934 0 0
9:53 pm 21:53 Clear 99 37.2 49 9.4 18 18 W 5 7 29.83 1010 10 16.0934 0 0
10:53 pm 22:53 Clear 95 35 55 12.8 26 26 N 5 7 29.83 1010 10 16.0934 0 0
11:53 pm 23:53 Clear 92 33.3 57 13.9 31 31 Calm 29.84 1010 10 16.0934 0 0

Powered by AerisWeather